[Date Prev][Date Next][Thread Prev][Thread Next] - [Date Index][Thread Index][Author Index]

2 Line ISS Keps 1-21



ISS
1 25544U 98067A   09021.56829861  .00011449  00000-0  95875-4 0  1154
2 25544 051.6439 337.4961 0007734 291.5842 042.8070 15.70494216582886
----
Sent via sarex@amsat.org. Opinions expressed are those of the author.
Not an AMSAT member? Join now to support the amateur satellite program!
Subscription settings: http://amsat.org/mailman/listinfo/sarex



AMSAT Top AMSAT Home